Change the Weather History Date:

Thursday, October 10, 2013

  Actual Average Record
Temperature  
Mean Temperature 55 °F 58 °F  
Max Temperature 57 °F 70 °F 85 °F (1985)
Min Temperature 52 °F 46 °F 31 °F (1972)
Degree Days  
Heating Degree Days 10 8  
Month to date heating degree days 27 66  
Since 1 July heating degree days 94 124  
Cooling Degree Days 0 1  
Month to date cooling degree days 43 12  
Year to date cooling degree days 1267 1169  
Growing Degree Days 4 (Base 50)    
Moisture  
Dew Point 51 °F    
Average Humidity 90    
Maximum Humidity 96    
Minimum Humidity 83    
Precipitation  
Precipitation 2.22 in 0.11 in 2.22 in (2013)
Month to date precipitation 3.56 1.06  
Year to date precipitation 33.02 32.98  
Snow  
Snow 0.00 in 0.00 in 1.30 in (1979)
Month to date snowfall 0.0 0.0  
Since 1 July snowfall 0.0 0.0  
Snow Depth 0.00 in    
Sea Level Pressure  
Sea Level Pressure 30.11 in    
Wind  
Wind Speed 12 mph (North)    
Max Wind Speed 17 mph    
Max Gust Speed 24 mph    
Visibility 4 miles    
Events Rain    
T = Trace of Precipitation, MM = Missing Value Source: NWS Daily Summary

Daily Weather History Graph

Daily Weather History Graph

Search for Another Location

Airport or City:

Trip Planner

Search our weather history database for the weather conditions in past years. The results will help you decide how hot, cold, wet, or windy it might be!

Date:

Astronomy

Oct. 10, 2013 Rise Set
Actual Time 7:14 AM EDT 6:38 PM EDT
Civil Twilight 6:47 AM EDT 7:04 PM EDT
Nautical Twilight 6:16 AM EDT 7:35 PM EDT
Astronomical Twilight 5:45 AM EDT 8:06 PM EDT
Moon 1:02 PM EDT (10/10) 11:15 PM EDT (10/10)
Length of Visible Light 12h 17m
Length of Day
11h 23m
Waxing Crescent, 35% of the Moon is Illuminated
Oct 10
Waxing Crescent
Oct 11
First Quarter
Oct 18
Full
Oct 26
Last Quarter
Nov 3
New

Hourly Weather History & Observations

Time (EDT) Temp. Dew Point Humidity Pressure Visibility Wind Dir Wind Speed Gust Speed Precip Events Conditions
12:13 AM 53.6 °F 48.2 °F 82% 30.23 in 5.0 mi NNE 9.2 mph - 0.01 in Rain Light Rain
12:52 AM 52.0 °F 48.9 °F 89% 30.22 in 3.0 mi North 9.2 mph - 0.07 in Rain Rain
1:52 AM 53.1 °F 48.9 °F 86% 30.20 in 10.0 mi North 11.5 mph - 0.01 in   Overcast
2:52 AM 54.0 °F 48.9 °F 83% 30.17 in 10.0 mi North 10.4 mph - N/A   Overcast
3:52 AM 54.0 °F 48.9 °F 83% 30.17 in 8.0 mi North 11.5 mph - 0.00 in Rain Light Rain
4:52 AM 53.1 °F 48.9 °F 86% 30.16 in 7.0 mi North 12.7 mph - 0.02 in Rain Light Rain
5:52 AM 53.1 °F 48.9 °F 86% 30.16 in 7.0 mi North 11.5 mph - 0.06 in Rain Light Rain
6:52 AM 53.1 °F 48.9 °F 86% 30.16 in 10.0 mi North 11.5 mph - 0.01 in Rain Light Rain
7:23 AM 53.6 °F 48.2 °F 82% 30.15 in 10.0 mi North 11.5 mph - 0.00 in Rain Light Rain
7:52 AM 53.1 °F 50.0 °F 89% 30.15 in 5.0 mi North 11.5 mph - 0.03 in Rain Rain
7:55 AM 53.6 °F 50.0 °F 88% 30.15 in 4.0 mi NNW 13.8 mph - 0.01 in Rain Rain
8:06 AM 53.6 °F 50.0 °F 88% 30.15 in 2.0 mi North 12.7 mph - 0.05 in Rain Heavy Rain
8:46 AM 53.6 °F 50.0 °F 88% 30.14 in 2.0 mi North 15.0 mph - 0.30 in Rain Heavy Rain
8:52 AM 53.1 °F 50.0 °F 89% 30.14 in 2.0 mi North 11.5 mph - 0.35 in Rain Heavy Rain
9:05 AM 53.6 °F 50.0 °F 88% 30.15 in 1.5 mi North 10.4 mph - 0.08 in Rain Heavy Rain
9:20 AM 53.6 °F 50.0 °F 88% 30.16 in 1.2 mi North 10.4 mph - 0.21 in Rain Heavy Rain
9:52 AM 52.0 °F 50.0 °F 93% 30.14 in 1.2 mi North 11.5 mph - 0.39 in Rain Rain
9:59 AM 51.8 °F 50.0 °F 94% 30.14 in 1.5 mi NNW 11.5 mph - 0.03 in Rain Heavy Rain
10:03 AM 51.8 °F 50.0 °F 94% 30.14 in 1.2 mi NNW 10.4 mph - 0.05 in Rain Heavy Rain
10:52 AM 53.1 °F 51.1 °F 93% 30.14 in 1.2 mi North 11.5 mph - 0.31 in Rain Heavy Rain
11:16 AM 53.6 °F 51.8 °F 94% 30.13 in 2.0 mi North 10.4 mph - 0.20 in Rain Rain
11:26 AM 53.6 °F 51.8 °F 94% 30.13 in 3.0 mi North 11.5 mph - 0.21 in Rain Light Rain
11:35 AM 53.6 °F 51.8 °F 94% 30.13 in 2.5 mi North 11.5 mph - 0.23 in Rain Rain
11:52 AM 53.1 °F 51.1 °F 93% 30.13 in 2.5 mi North 10.4 mph - 0.25 in Rain Light Rain
12:52 PM 54.0 °F 52.0 °F 93% 30.10 in 2.5 mi North 13.8 mph - 0.05 in Rain Rain
1:52 PM 54.0 °F 52.0 °F 93% 30.08 in 2.5 mi North 12.7 mph - 0.06 in Rain Light Rain
2:52 PM 55.0 °F 53.1 °F 93% 30.06 in 2.5 mi North 12.7 mph - 0.00 in Rain Light Rain
3:52 PM 55.9 °F 54.0 °F 93% 30.06 in 3.0 mi NNW 11.5 mph - 0.02 in Rain Light Rain
4:52 PM 57.0 °F 54.0 °F 89% 30.05 in 3.0 mi North 16.1 mph 20.7 mph 0.00 in Rain Light Rain
4:54 PM 57.2 °F 53.6 °F 88% 30.05 in 3.0 mi North 13.8 mph 20.7 mph 0.00 in   Overcast
5:21 PM 57.2 °F 53.6 °F 88% 30.05 in 3.0 mi North 15.0 mph - 0.00 in Rain Light Rain
5:52 PM 57.0 °F 54.0 °F 89% 30.05 in 2.0 mi North 11.5 mph - 0.01 in   Overcast
6:50 PM 57.2 °F 53.6 °F 88% 30.05 in 1.2 mi NNW 12.7 mph 20.7 mph 0.27 in Rain Heavy Rain
6:52 PM 57.0 °F 54.0 °F 89% 30.05 in 1.0 mi NNW 11.5 mph 20.7 mph 0.33 in Rain Heavy Rain
7:29 PM 57.2 °F 55.4 °F 94% 30.05 in 3.0 mi North 11.5 mph - 0.28 in Rain Light Rain
7:52 PM 55.9 °F 54.0 °F 93% 30.05 in 4.0 mi North 15.0 mph 19.6 mph 0.29 in Rain Light Rain
8:52 PM 55.9 °F 53.1 °F 90% 30.04 in 4.0 mi NNW 12.7 mph - 0.01 in Rain Light Rain
9:52 PM 55.9 °F 53.1 °F 90% 30.04 in 4.0 mi NNW 12.7 mph - 0.01 in   Overcast
10:52 PM 55.9 °F 54.0 °F 93% 30.03 in 3.0 mi North 12.7 mph - 0.00 in Rain Light Rain
11:52 PM 57.0 °F 54.0 °F 89% 30.01 in 3.0 mi North 15.0 mph - 0.00 in Rain Light Rain